Temp
-13 -13 -13 -13 -13 -13 -14 -14 -14 -14 -14 -14 -13 -13 -13 -14 -14 -13 -13 -13 -13 -13 -14 -14 -14 -14 -14 -14 -14 -14 -14 -14 -14 -14 -14 -14 -14 -14 -14 -14 -14 -14
-13 -13 -13 -13 -13 -13 -14 -14 -14 -14 -14 -14 -13 -13 -14 -14 -14 -14 -14 -14 -14 -14 -14 -14 -14 -14 -14 -14 -14 -14 -14 -14 -14 -14 -14 -14 -14 -14 -14 -14 -14 -14
-13 -13 -13 -13 -13 -13 -13 -14 -14 -14 -14 -14 -14 -14 -14 -14 -14 -14 -14 -14 -14 -14 -14 -14 -14 -14 -14 -14 -14 -14 -14 -14 -14 -14 -14 -14 -14 -14 -14 -14 -14 -14
-13 -13 -13 -13 -13 -13 -13 -13 -14 -14 -14 -14 -14 -14 -14 -14 -14 -14 -14 -14 -14 -14 -14 -14 -14 -14 -14 -14 -14 -14 -14 -14 -14 -14 -14 -14 -14 -14 -14 -14 -14 -14
-13 -14 -14 -14 -14 -13 -13 -13 -14 -14 -14 -14 -14 -14 -14 -14 -14 -14 -14 -14 -14 -15 -14 -14 -14 -14 -14 -14 -14 -14 -14 -14 -14 -14 -14 -14 -14 -14 -14 -14 -14 -14
-13 -14 -14 -14 -14 -14 -14 -14 -14 -14 -14 -14 -14 -14 -14 -14 -14 -14 -14 -14 -15 -15 -15 -15 -15 -15 -14 -14 -14 -14 -14 -14 -14 -14 -14 -14 -14 -14 -14 -14 -14 -14
-14 -14 -14 -14 -14 -14 -14 -14 -14 -14 -14 -14 -14 -14 -14 -14 -14 -14 -14 -15 -15 -15 -15 -15 -15 -15 -15 -15 -14 -14 -14 -14 -14 -14 -15 -15 -15 -14 -14 -14 -14 -15
-14 -14 -14 -14 -14 -14 -14 -14 -14 -14 -14 -14 -14 -14 -14 -14 -14 -15 -15 -15 -15 -15 -15 -15 -15 -15 -15 -15 -14 -14 -14 -14 -14 -14 -15 -15 -15 -15 -14 -14 -14 -15
-14 -14 -14 -14 -14 -14 -14 -14 -14 -14 -14 -14 -14 -14 -14 -14 -15 -15 -15 -15 -15 -15 -15 -15 -15 -15 -15 -15 -14 -14 -14 -14 -14 -15 -15 -15 -15 -15 -15 -15 -15 -15
-14 -14 -15 -15 -14 -14 -14 -14 -14 -14 -14 -14 -14 -15 -15 -15 -15 -15 -15 -15 -15 -15 -15 -15 -15 -15 -15 -15 -15 -14 -15 -15 -15 -15 -15 -15 -15 -15 -15 -15 -15 -15
-14 -14 -14 -14 -14 -14 -14 -14 -14 -14 -14 -14 -15 -15 -15 -15 -15 -15 -15 -15 -15 -15 -15 -15 -15 -15 -15 -15 -15 -15 -15 -15 -15 -15 -15 -15 -15 -15 -15 -15 -15 -15
-14 -14 -14 -14 -14 -14 -14 -14 -14 -15 -15 -15 -15 -15 -15 -15 -15 -15 -15 -15 -15 -15 -15 -15 -15 -15 -15 -15 -15 -15 -15 -15 -15 -15 -15 -15 -15 -15 -15 -15 -15 -15
-14 -14 -14 -14 -14 -14 -14 -15 -15 -15 -15 -15 -15 -15 -15 -15 -15 -15 -15 -15 -15 -15 -15 -15 -15 -15 -15 -15 -15 -15 -15 -15 -15 -15 -15 -15 -15 -15 -15 -15 -15 -15
-14 -14 -14 -14 -14 -14 -14 -15 -15 -15 -15 -15 -15 -15 -15 -15 -15 -15 -15 -15 -15 -15 -15 -15 -16 -15 -15 -15 -15 -15 -15 -15 -15 -15 -15 -16 -16 -16 -15 -15 -15 -15
-14 -14 -14 -14 -14 -14 -14 -15 -15 -15 -15 -15 -15 -15 -15 -15 -15 -15 -15 -15 -15 -15 -15 -16 -16 -15 -15 -15 -15 -15 -15 -15 -16 -16 -16 -16 -16 -16 -15 -15 -15 -15
-14 -14 -14 -14 -14 -15 -15 -15 -15 -15 -15 -15 -15 -15 -15 -15 -15 -15 -15 -15 -15 -15 -15 -16 -15 -15 -15 -15 -15 -15 -15 -15 -16 -16 -16 -16 -15 -15 -15 -15 -15 -15
-14 -15 -15 -15 -15 -15 -15 -15 -15 -15 -15 -15 -15 -15 -15 -15 -15 -15 -15 -15 -15 -16 -15 -15 -15 -15 -15 -15 -15 -15 -15 -16 -16 -16 -16 -16 -16 -16 -15 -15 -15 -15
-15 -15 -15 -15 -15 -15 -15 -15 -15 -15 -15 -15 -15 -15 -15 -15 -15 -15 -15 -15 -15 -15 -16 -16 -16 -16 -15 -15 -15 -15 -16 -16 -16 -16 -16 -16 -16 -16 -16 -16 -15 -16
-15 -15 -15 -15 -15 -15 -15 -15 -15 -15 -15 -16 -15 -15 -15 -15 -15 -15 -15 -15 -16 -16 -16 -16 -16 -16 -15 -15 -15 -15 -16 -16 -16 -16 -16 -16 -16 -16 -16 -16 -16 -16
-15 -15 -15 -15 -15 -15 -15 -15 -15 -15 -15 -15 -15 -15 -15 -15 -15 -15 -16 -16 -16 -16 -16 -16 -16 -16 -16 -16 -16 -16 -16 -16 -16 -16 -16 -16 -16 -16 -16 -16 -16 -16
-15 -15 -15 -15 -15 -15 -15 -15 -15 -15 -15 -15 -15 -15 -15 -16 -15 -15 -16 -16 -16 -16 -16 -16 -16 -16 -16 -16 -16 -16 -16 -16 -16 -16 -16 -16 -16 -16 -16 -16 -16 -16
-15 -15 -15 -15 -15 -15 -15 -15 -15 -15 -15 -15 -15 -15 -15 -16 -16 -16 -16 -16 -16 -16 -16 -16 -16 -16 -16 -16 -16 -16 -16 -16 -16 -16 -16 -16 -16 -16 -16 -16 -16 -16
-15 -15 -15 -15 -15 -15 -15 -15 -15 -15 -15 -15 -15 -15 -16 -16 -16 -16 -16 -16 -16 -16 -15 -15 -16 -16 -16 -16 -16 -16 -16 -16 -16 -16 -16 -16 -16 -16 -16 -16 -16 -16
-15 -15 -15 -15 -15 -15 -15 -15 -15 -15 -15 -15 -15 -16 -16 -16 -16 -16 -16 -16 -16 -16 -16 -16 -16 -16 -16 -16 -16 -16 -16 -16 -16 -16 -16 -16 -16 -16 -16 -16 -17 -17
-15 -15 -15 -15 -15 -15 -15 -15 -15 -15 -15 -16 -16 -16 -16 -16 -16 -16 -16 -16 -16 -16 -16 -16 -16 -16 -16 -16 -16 -16 -16 -16 -16 -16 -16 -16 -16 -16 -16 -17 -17 -17
-15 -15 -15 -15 -15 -15 -15 -15 -15 -15 -16 -16 -16 -16 -16 -16 -16 -16 -16 -16 -16 -16 -16 -16 -16 -16 -16 -16 -16 -16 -16 -16 -16 -16 -16 -16 -16 -16 -17 -17 -17 -17
Height
5772 5773 5774 5775 5776 5776 5777 5778 5780 5782 5784 5785 5786 5786 5787 5787 5788 5789 5790 5790 5791 5793 5793 5794 5795 5795 5796 5797 5798 5798 5799 5799 5799 5800 5800 5800 5800 5800 5800 5800 5801 5801
5769 5771 5772 5773 5773 5773 5774 5776 5778 5779 5781 5783 5783 5784 5784 5785 5786 5787 5788 5789 5790 5791 5791 5792 5793 5793 5794 5795 5796 5796 5797 5798 5798 5798 5798 5799 5799 5799 5799 5799 5799 5800
5767 5768 5769 5769 5770 5771 5772 5773 5775 5777 5779 5780 5781 5782 5782 5783 5784 5785 5786 5787 5787 5788 5789 5790 5791 5792 5793 5793 5794 5794 5795 5796 5796 5796 5797 5797 5797 5797 5797 5797 5797 5798
5764 5765 5765 5766 5767 5768 5769 5770 5772 5774 5776 5777 5779 5779 5780 5781 5782 5782 5783 5784 5785 5785 5786 5787 5789 5790 5791 5792 5792 5793 5793 5794 5794 5795 5795 5795 5795 5795 5796 5796 5796 5796
5761 5761 5762 5763 5764 5765 5766 5768 5769 5771 5773 5774 5776 5777 5777 5778 5779 5780 5781 5782 5782 5783 5784 5785 5787 5788 5789 5790 5790 5791 5791 5792 5792 5793 5793 5793 5793 5793 5793 5794 5794 5794
5758 5758 5759 5760 5761 5762 5763 5765 5767 5768 5770 5772 5773 5774 5775 5776 5776 5777 5778 5779 5779 5780 5781 5783 5784 5786 5787 5788 5788 5789 5789 5790 5790 5791 5791 5792 5792 5792 5792 5792 5792 5792
5755 5755 5756 5757 5759 5760 5761 5763 5764 5766 5768 5769 5770 5771 5772 5773 5774 5774 5775 5776 5777 5778 5779 5781 5782 5783 5785 5785 5786 5787 5787 5788 5788 5789 5789 5790 5790 5790 5790 5790 5790 5790
5753 5753 5754 5755 5757 5758 5759 5761 5763 5764 5765 5766 5767 5768 5769 5770 5771 5772 5773 5774 5775 5776 5777 5779 5780 5781 5783 5783 5784 5785 5786 5786 5787 5787 5788 5788 5789 5789 5789 5789 5788 5789
5751 5751 5752 5753 5754 5756 5757 5758 5760 5761 5762 5763 5764 5765 5766 5767 5769 5769 5770 5771 5773 5774 5775 5777 5778 5780 5781 5782 5782 5783 5783 5784 5785 5785 5786 5786 5787 5787 5787 5787 5787 5787
5748 5749 5750 5751 5752 5753 5754 5756 5757 5758 5759 5761 5762 5763 5764 5765 5766 5767 5768 5769 5771 5772 5774 5775 5777 5778 5779 5780 5781 5781 5781 5782 5783 5783 5784 5784 5785 5785 5785 5786 5786 5786
5745 5746 5748 5750 5750 5751 5752 5753 5755 5756 5757 5758 5759 5760 5762 5763 5764 5765 5766 5767 5769 5770 5772 5773 5775 5776 5777 5778 5779 5779 5779 5780 5780 5781 5782 5782 5783 5783 5783 5784 5784 5784
5743 5744 5746 5747 5748 5749 5750 5751 5752 5753 5754 5755 5756 5758 5759 5760 5761 5763 5764 5765 5767 5768 5769 5771 5772 5774 5775 5776 5777 5777 5777 5778 5778 5779 5779 5780 5780 5781 5781 5782 5782 5782
5740 5742 5743 5745 5746 5747 5748 5749 5750 5751 5752 5753 5754 5755 5757 5758 5759 5760 5762 5763 5765 5766 5767 5769 5770 5772 5773 5774 5774 5775 5775 5776 5776 5777 5777 5778 5778 5778 5779 5779 5780 5780
5738 5739 5741 5742 5743 5744 5746 5747 5748 5749 5750 5751 5752 5753 5754 5755 5757 5758 5760 5761 5763 5764 5766 5767 5768 5769 5770 5771 5772 5773 5773 5774 5774 5775 5775 5775 5776 5776 5776 5777 5777 5778
5735 5736 5738 5740 5741 5742 5744 5745 5746 5747 5748 5749 5750 5751 5752 5753 5755 5756 5757 5759 5761 5763 5765 5765 5766 5766 5767 5769 5769 5770 5771 5772 5772 5772 5773 5773 5773 5773 5774 5774 5774 5775
5732 5733 5735 5737 5738 5740 5742 5743 5744 5745 5745 5746 5747 5748 5749 5751 5752 5753 5755 5757 5760 5761 5762 5762 5762 5764 5765 5766 5767 5767 5768 5769 5769 5770 5770 5770 5771 5771 5771 5771 5771 5771
5729 5730 5732 5734 5735 5737 5738 5740 5741 5741 5743 5744 5745 5746 5747 5748 5750 5751 5753 5755 5757 5758 5758 5759 5760 5761 5762 5763 5764 5765 5766 5766 5766 5767 5767 5768 5768 5768 5768 5768 5768 5768
5726 5727 5728 5730 5732 5733 5735 5736 5737 5739 5741 5742 5743 5744 5745 5746 5748 5749 5751 5752 5754 5754 5755 5756 5757 5758 5759 5760 5761 5762 5763 5763 5763 5764 5764 5765 5765 5765 5765 5765 5765 5765
5723 5724 5726 5728 5729 5731 5732 5734 5735 5737 5739 5740 5740 5741 5743 5744 5746 5747 5748 5750 5751 5752 5752 5753 5754 5755 5756 5757 5758 5759 5760 5760 5760 5761 5761 5761 5762 5762 5762 5762 5762 5762
5722 5723 5725 5727 5727 5729 5730 5732 5733 5734 5735 5736 5737 5739 5741 5742 5743 5744 5746 5747 5747 5748 5749 5750 5751 5751 5752 5753 5754 5755 5756 5756 5756 5757 5757 5757 5758 5757 5758 5758 5758 5758
5721 5722 5724 5725 5725 5726 5728 5729 5730 5731 5732 5733 5735 5736 5738 5739 5740 5742 5743 5743 5744 5745 5746 5746 5747 5748 5748 5750 5750 5750 5751 5752 5752 5753 5753 5753 5753 5754 5754 5755 5755 5755
5719 5720 5722 5722 5723 5724 5726 5727 5728 5729 5729 5730 5732 5733 5735 5736 5737 5738 5739 5740 5740 5741 5742 5743 5744 5744 5745 5746 5746 5746 5747 5747 5748 5749 5749 5749 5750 5750 5750 5751 5752 5752
5717 5718 5719 5720 5721 5722 5723 5724 5725 5726 5726 5727 5729 5730 5732 5733 5733 5734 5735 5736 5736 5737 5738 5739 5739 5740 5741 5741 5742 5742 5743 5743 5744 5744 5744 5745 5746 5746 5746 5747 5747 5747
5714 5715 5716 5717 5718 5719 5720 5721 5723 5723 5724 5725 5726 5728 5729 5729 5730 5731 5732 5732 5732 5733 5734 5734 5735 5736 5736 5737 5738 5739 5739 5739 5739 5739 5740 5741 5741 5741 5742 5743 5743 5743
5711 5712 5712 5714 5715 5716 5717 5718 5719 5720 5721 5722 5723 5724 5725 5726 5727 5727 5728 5729 5729 5729 5730 5731 5731 5732 5733 5733 5734 5735 5735 5735 5735 5736 5736 5736 5737 5737 5737 5738 5739 5739
5708 5709 5710 5711 5712 5713 5713 5714 5716 5717 5717 5718 5719 5720 5721 5722 5723 5723 5724 5725 5726 5726 5727 5727 5728 5728 5729 5730 5730 5731 5731 5731 5732 5732 5732 5733 5733 5733 5733 5734 5735 5735
Wind_Speed
14 14 14 14 15 16 17 19 20 21 17 16 16 16 16 16 16 16 16 16 15 15 15 14 13 12 12 12 12 12 12 13 14 14 14 12 12 12 13 13 12 12
14 15 15 14 14 15 15 17 19 20 17 17 17 18 18 18 17 18 18 17 16 16 16 15 14 13 13 12 13 13 14 14 14 14 14 13 12 12 13 13 13 13
12 14 15 15 15 15 15 16 19 20 18 18 18 19 20 19 19 19 18 17 17 16 16 15 15 14 14 13 14 14 15 14 14 14 14 13 13 13 13 13 13 13
12 14 16 16 16 16 16 17 19 21 20 20 20 21 21 20 20 20 19 18 17 16 16 16 15 15 14 14 15 15 15 14 14 14 14 14 14 13 13 14 14 14
14 15 17 17 16 16 16 17 20 21 21 20 21 21 21 21 20 20 19 18 17 16 16 16 16 15 15 15 15 15 15 14 14 14 14 14 14 14 14 14 15 15
16 17 18 18 17 16 16 17 19 20 20 20 21 22 22 21 21 20 20 19 18 17 17 16 16 16 15 15 15 15 15 14 14 14 13 14 14 14 15 15 15 15
17 18 18 18 17 17 16 17 19 19 19 20 21 22 22 22 21 21 20 20 19 18 17 17 16 16 15 15 15 15 15 16 15 14 14 13 13 14 15 15 15 15
16 16 17 18 18 18 17 17 19 18 18 20 21 22 22 21 21 20 20 20 20 19 18 17 16 16 15 15 16 16 17 17 16 16 15 14 14 14 15 14 15 15
16 15 17 17 18 19 18 19 22 20 19 20 21 21 21 21 21 21 20 20 20 20 19 18 17 16 15 16 17 18 18 18 18 17 17 16 16 16 15 15 14 14
18 17 18 17 18 20 19 20 23 22 18 18 19 20 21 21 22 22 22 22 21 21 20 19 17 16 16 17 18 18 18 18 18 17 18 18 18 18 17 17 16 15
20 19 19 18 18 19 19 20 23 21 17 17 19 20 21 22 23 23 24 23 22 22 21 20 19 17 17 16 16 16 16 16 16 17 17 18 19 20 20 19 19 18
19 18 19 19 18 18 19 20 22 20 16 16 18 19 20 22 23 23 23 23 23 22 21 21 20 18 17 16 15 14 13 13 14 15 17 18 19 21 21 21 21 21
18 17 19 19 18 18 19 21 22 20 18 16 18 19 20 22 22 22 22 22 23 23 22 21 20 18 18 17 15 14 14 14 14 15 16 18 20 21 22 23 23 23
19 19 18 18 18 18 19 20 22 21 19 18 19 21 21 22 22 22 21 20 21 22 21 20 20 20 20 19 18 17 16 15 15 16 18 19 21 22 24 25 25 26
20 20 20 19 20 20 20 19 21 21 20 19 20 22 23 22 23 22 21 21 21 20 19 20 21 22 21 20 20 19 18 17 17 19 20 21 22 23 25 26 27 28
20 21 20 19 20 22 20 19 20 20 20 20 21 23 23 23 23 23 22 21 19 19 20 23 23 23 23 22 22 21 20 19 19 20 21 22 23 24 26 27 28 29
21 21 20 19 20 22 20 19 19 20 20 21 22 22 22 23 23 22 21 19 18 20 22 24 24 24 24 24 24 23 23 22 21 20 20 21 22 24 26 27 28 30
21 21 21 21 20 20 19 19 19 19 19 20 21 22 22 23 23 22 21 19 19 20 21 23 24 25 25 25 25 25 24 24 23 22 22 23 24 25 26 27 28 29
21 20 20 19 19 19 19 19 19 19 20 22 22 22 23 23 23 22 21 20 19 20 21 22 23 24 24 24 24 24 24 25 26 27 28 28 28 28 29 29 30 30
21 22 21 21 22 21 20 20 20 21 23 25 24 23 23 24 24 23 22 22 22 21 22 22 22 23 23 23 24 24 25 26 27 29 29 30 30 30 30 31 32 31
21 22 23 24 24 21 20 20 21 22 23 24 24 24 23 24 24 24 24 25 25 25 25 25 25 26 26 26 27 28 28 29 30 31 31 31 31 31 33 34 32 30
20 21 22 23 23 22 22 22 22 23 24 24 24 23 23 23 23 24 25 25 26 27 28 28 29 29 30 30 31 32 32 33 33 34 34 33 33 32 34 35 30 26
21 22 23 24 25 25 26 26 25 25 26 26 25 24 23 23 24 24 24 25 27 28 28 28 28 30 31 32 33 33 32 30 30 32 33 33 33 32 31 31 28 26
24 25 26 27 27 27 27 27 26 26 27 28 27 25 24 25 26 25 25 25 24 24 24 24 25 26 27 28 29 28 28 27 27 28 29 31 33 32 28 28 29 29
29 31 31 30 28 27 28 28 27 28 28 26 26 26 26 26 26 26 25 24 22 22 22 23 23 24 24 25 26 26 27 27 26 25 26 28 30 29 27 27 29 29
26 28 28 28 27 27 27 27 27 28 28 26 25 26 25 24 24 24 24 23 23 23 23 23 23 24 24 25 25 25 26 25 25 25 26 26 26 26 26 27 29 30
Wind_Direction
272 272 275 266 259 258 251 244 235 228 244 266 255 237 227 220 220 225 230 235 240 243 242 238 234 233 239 249 257 264 270 274 276 274 271 270 272 275 279 281 279 278
273 269 270 266 259 256 251 246 235 230 247 262 249 232 223 222 225 229 235 240 243 243 241 237 234 234 240 250 260 268 271 273 272 269 268 268 268 271 275 276 274 271
271 266 263 259 255 254 252 245 234 233 250 258 245 229 223 224 227 231 237 241 243 243 240 238 238 238 241 249 258 266 268 269 268 267 268 269 268 269 271 270 268 264
268 264 258 253 251 252 251 242 233 237 249 252 240 227 222 224 228 232 236 240 242 241 239 239 240 241 244 248 254 259 261 263 265 267 269 270 270 270 269 267 264 261
266 262 254 249 249 249 249 244 238 239 245 245 237 226 222 225 229 232 236 240 242 240 239 240 241 243 245 247 249 250 253 258 261 265 266 267 269 270 270 268 264 261
263 259 252 248 247 246 250 247 236 233 237 238 232 226 224 226 230 233 237 239 240 239 240 241 241 241 241 241 243 245 250 255 258 260 260 261 264 268 270 268 264 262
267 259 251 247 245 246 252 246 229 224 229 230 227 225 225 226 229 233 236 237 237 237 239 239 238 236 236 237 240 244 251 255 256 255 254 256 258 260 264 265 265 264
274 261 250 245 245 247 249 240 227 223 226 225 224 225 227 228 230 233 235 235 235 237 238 236 233 233 235 237 241 246 252 255 255 252 250 251 252 254 256 259 262 264
269 261 250 246 247 247 245 237 229 226 226 225 226 228 229 231 232 232 234 235 236 239 238 234 230 231 235 238 243 248 252 254 254 252 248 246 247 249 250 252 257 260
264 260 250 249 252 248 242 236 229 225 227 230 230 232 233 234 234 234 234 236 239 238 234 230 229 233 239 243 246 249 251 252 253 252 249 246 247 249 249 249 251 254
262 258 248 253 257 249 241 235 227 224 228 232 232 234 236 236 236 235 235 237 239 236 231 229 230 236 243 245 245 247 249 252 254 254 253 251 251 252 252 252 251 251
260 255 248 251 253 245 238 230 223 227 235 234 232 234 235 236 236 236 236 236 234 231 229 230 233 237 241 239 238 241 246 250 253 255 256 256 256 257 257 256 254 253
257 253 246 246 247 238 228 223 222 231 239 235 232 232 234 237 236 235 237 236 231 228 229 232 235 236 235 231 232 237 242 246 250 253 255 256 257 258 258 258 257 257
253 252 242 241 241 228 216 217 224 233 237 233 230 230 233 236 235 236 239 237 233 232 233 236 236 234 232 230 232 237 242 248 253 256 258 257 257 257 258 258 260 261
252 248 242 242 238 222 215 224 232 236 239 233 228 230 233 235 235 236 239 239 240 241 242 242 240 237 236 235 237 241 246 252 257 260 262 261 260 260 261 261 262 263
252 249 246 245 234 221 223 237 240 239 237 232 229 231 232 234 235 238 241 244 246 246 244 244 243 242 241 241 243 246 249 254 258 261 261 261 262 263 264 265 265 265
252 251 243 233 223 223 236 249 248 242 236 230 229 231 232 234 237 240 243 245 246 244 243 243 243 244 244 245 247 249 250 253 256 259 260 261 263 265 267 268 268 268
249 241 227 217 218 232 248 254 251 247 238 229 229 231 232 234 237 241 243 242 241 243 245 245 245 245 246 248 250 250 251 253 255 258 262 264 266 269 270 271 271 270
245 234 222 219 230 244 250 249 247 242 234 229 229 231 232 234 237 240 244 243 242 243 246 248 248 248 248 249 251 253 254 255 257 259 263 266 269 270 271 273 273 271
241 233 229 235 245 249 247 243 240 237 232 231 233 235 237 238 240 243 246 246 245 246 249 252 255 255 254 255 259 262 262 261 261 262 264 267 268 269 272 274 274 271
234 231 232 240 246 246 243 240 238 239 239 236 235 239 242 244 247 249 250 251 251 250 250 252 254 257 259 261 264 265 265 264 264 264 265 267 267 269 273 274 271 267
233 232 234 238 241 241 240 239 236 237 240 238 237 241 245 248 252 255 257 259 261 260 257 254 253 255 258 260 262 263 265 266 266 264 264 264 264 267 270 269 264 261
240 238 238 238 239 239 239 238 234 235 240 242 243 246 248 251 256 261 264 267 268 266 262 258 256 256 257 258 259 262 264 266 266 263 260 258 259 263 265 260 254 251
239 237 237 238 238 238 238 236 233 235 240 243 244 245 247 251 255 260 264 266 266 263 259 258 258 258 257 257 258 259 262 264 266 264 259 258 260 261 257 250 247 249
236 231 230 231 233 233 234 236 238 239 241 243 244 246 248 250 254 258 260 262 262 261 259 259 259 258 258 258 258 260 263 265 266 265 262 259 258 254 248 245 247 251
228 222 221 222 225 229 233 237 238 240 243 245 246 249 251 253 255 258 259 260 261 261 261 261 261 260 260 261 261 262 265 265 264 262 260 257 252 248 247 247 248 252